Погода Нижний Новгород

Хотите узнать прогноз погоды в Нижнем Новгороде? Тогда Вам сюда: Погода в Нижнем Новгороде

Поиск расширенной информации на нашем сайте:

Полезная информация:

Новости сайта



02.01.2020
Опубликован Долгосрочный прогноз погоды по городам России и ближнего зарубежья на январь 2020 года.
Карты: Прогноз на январь и февраль 2020 года, Сравнение прогнозируемой аномалии приземной температуры воздуха на январь 2020 года по разным моделям.




Погода Нижний Новгород - сегодня

Время (UTC), дата Ветер
(°,м/с) 
Видим.   Явления Облачность Т
(°С)
Тd
(°С)
f(%) Тe
(°С)
Pmin
(гПа)
dP
(гПа)
Po
(мм)
O2
(г/м3)
Тmin Tmax R s Состояние
почвы
18 24.01.20 250 (З) 1-6{09}  4000 м  слаб. снег{морось} [диам. гололёда 1 мм]  10/10 300 м 
[Frnb]
-3 -3.1 99 -3  995.4  -2.1  732  299           
21 24.01.20 270 (З) 3-7{07}  10 км  слаб. снег [диам. гололёда 1 мм]  10/10 300 м 
[Sc]
-1.7 -2.1 97 -4  994.4  -0.9  731  297           
00 25.01.20 260 (З) 3-5{08}  10 км  {снег} [диам. гололёда 1 мм]  10/10 600 м 
[Sc]
-1.1 -1.3 99 -3  993.6  -0.8  731  296           
03 25.01.20 270 (З) 2-7{07}  10 км    10/10 300 м 
[St]
-0.7 -0.9 99 -2  992.9  -0.6  730  295  -4.6    0.0  18  равномерный
сухой снег
100% 
06 25.01.20 260 (З) 2-4{07}  10 км    9/8 600 м средняя 
[Sc|Ac trans]
-0.5 -1 96 -1  993  0.1  730  295           
09 25.01.20 270 (З) 3-5{07}  10 км    8/4 600 м средняя, верхняя 
[Sc|Ac trans|Ci fib]
+0.6 -4.1 71 -1  992.5  -0.4  730  294           
12 25.01.20 290 (З) 1-3{07}  10 км  в посл. час снег{ливн. осадки}  9/6 300 м кучево-дожд., средняя 
[Cb cap|Ac trans]
+0.2 -2.6 81 +1  992  -0.6  730  294           
15 25.01.20 240 (ЮЗ) 1-4{06}  10 км  {ливн. осадки}  9/6 600 м средняя 
[Sc|Ac trans]
-0.4 -4 77 990.4  -1.6  728  294    +0.8  0.7     
18 25.01.20 250 (З) 2-5{05}  4000 м  слаб. снег{ливн. осадки}  10/10 300 м 
[Frnb]
-0.8 -0.8 100 -2  988.3  -2  727  294           
21 25.01.20 300 (СЗ) 3-8{10}  4000 м  слаб. ливневой снег  10/10 200 м 
[Frnb]
-1.7 -1.8 99 -4  990.2  1.7  728  295           
00 26.01.20 320 (СЗ) 3-10{10}  10 км  {ливн. осадки, снег}  10/10 200 м 
[Frnb]
-2 -2 100 -4  992.4  2.2  730  296           
03 26.01.20 330 (СЗ) 4-10{12}  10 км  {снег}  10/10 300 м 
[Frnb]
-2.1 -5.6 77 -5  996.6  4.1  733  298  -2.6    20  равномерный
сухой снег
100% 
06 26.01.20 330 (СЗ) 3-7{12}  10 км  слаб. снег  10/10 300 м 
[Frnb]
-3 -8 68 -5  1001  4.2  736  301  -3.1         
09 26.01.20 310 (СЗ) 2-5{11}  10 км  {снег}  9/9 600 м 
[Sc]
-2.9 -8.5 65 -4  1003.7  2.7  738  301           
12 26.01.20 310 (СЗ) 5-12{12}  10 км  {снег}  8/8 1000 м 
[Sc]
-3.2 -11.6 52 -7  1005.6  1.8  739  302           
15 26.01.20 290 (З) 1-4{12}  10 км    8/8 600 м кучево-дожд. 
[Cb cap]
-4.1 -7.2 79 -4  1007.1  1.4  740  304    -2.1  0.0     
18 26.01.20 250 (З) 1-3{05}  10 км  {ливн. осадки}  9/9 600 м 
[Sc]
-3.2 -7.6 72 -3  1005  -2  739  302           
21 26.01.20 210 (ЮЗ) 2-7{07}  4000 м  слаб. снег  10/10 300 м 
[Frnb]
-3.8 -5.5 88 -5  1000.8  -4.1  736  301           
00 27.01.20 260 (З) 2-6{07}  4000 м  слаб. снег  10/10 200 м 
[Frnb]
-2.4 -2.4 100 -3  997.1  -3.6  733  298           
03 27.01.20 330 (СЗ) 4-10{10}  10 км  {снег}  8/8 300 м кучево-дожд. 
[Cb cap]
-1.5 -3.5 86 -4  999.4  2.4  735  298  -4.1    23  равномерный
сухой снег
100% 
06 27.01.20 330 (СЗ) 3-7{14}  4000 м  слаб. крупа{ливн. осадки, снег}  6/6 300 м кучево-дожд. 
[Cb cap]
-3.6 -8.3 70 -6  1004.4  4.7  738  302           
09 27.01.20 320 (СЗ) 4-10{13}  10 км  {ливн. осадки}  ясно 
-5.3 -12.1 59 -9  1008.2  3.6  741  306           
12 27.01.20 320 (СЗ) 4-8{11}  10 км  слаб. ливневой снег  8/8 300 м кучево-дожд. 
[Cb cap]
-7.1 -12.3 66 -11  1011.9  3.5  744  309           
15 27.01.20 330 (СЗ) 3-6{10}  10 км    ясно 
-8.7 -13.2 70 -12  1015.5  3.4  746  312    -1.5  0.0     
18 27.01.20 340 (С) 2-4{07}  10 км    ясно 
-10.5 -13.8 77 -12  1017.9  2.2  748  315           
Время (UTC), дата Ветер
(°,м/с) 
Видим.   Явления Облачность Т
(°С)
Тd
(°С)
f(%) Тe
(°С)
Pmin
(гПа)
dP
(гПа)
Po
(мм)
O2
(г/м3)
Тmin Tmax R s Состояние
почвы

Для получения пояснительной информации подведите курсор к названию столбца.

ПОГОДА Нижний Новгород - архив

Всё, что Вы хотите узнать о погоде Нижний Новгород - удобно и подробно!

Выберите нужную дату (начиная с 1 января 2019* года) и нажмите кнопку "Найти".
Будут отображены архивные сводки погоды по пункту Нижний Новгород, начиная с указанной даты.


Отображать данные в формате CSV (для использования в таблицах Excel)


Внимание! Наш архив погоды предназначен исключительно для личного некоммерческого использования в познавательных целях. Если Вам необходимы официальные справки о состоянии погоды (для производственных, юридических, коммерческих и т.п. целей), обращайтесь в органы Росгидромета.

*Примечание: данная дата относится к архиву по метеостанциям СССР (Россия, СНГ, Балтия).
Архив по метеостанциям Зарубежной Европы и Азии (кроме Китая) хранится 10 дней, по другим регионам земного шара (Китай, Африка, Америка, Австралия, Океания) - 1 день.

Нижний Новгород - район местоположения метеостанции


Название, широта, долгота, высота метеостанции:
Нижний Новгород (Мыза) 56.3°ш. 44°д. 157 м над ур. моря [Российская Федерация]

Дополнительная информация

В oтличие oт бoльшинства пoгoдных сайтoв мы публикуем пoдрoбную метеoинфoрмацию в детальнoм прoфессиoнальнoм фoрмате.

Характеристики температуры и влажнoсти вoздуха измеряются на высoте 2 м в тени вдали oт зданий и деревьев.
Скoрoсть ветра измеряется на высoте 10 м (на урoвне рoста челoвека скoрoсть ветра ниже в 1.5-2 раза). Если метеoстанция нахoдится в гoрoде или в лесу, тo скoрoсть ветра занижена на 2-4 м/с пo сравнению с oткрытым местoм. Скoрoсть ветра над акватoриями крупных рек и oзёр, а также на вершинах хoлмoв на 2-5 м/с выше, чем в oбычных услoвиях.
Атмoсфернoе давление в разных тoчках местнoсти мoжет значительнo oтличаться oт давления на метеoстанции, в зависимoсти oт услoвий рельефа (при пoдъёме на 10 м давление пoнижается примернo на 1 мм рт.ст.).